[[{"header":{"parameterUnit":"m.s-1","parameterCategory":1,"la1":30.2991,"la2":30.254,"lo1":-89.0895,"lo2":-89.0444,"dy":0.0017,"dx":0.0017,"nx":28,"ny":28,"refTime":"2024-05-18T21:00:00:Z","depth":0,"parameterNumber":2,"parameterNumberName":"U-component_of_WINDS"},"data":[0,0,0,0,0,0,0,0,0,0,0,0,0,0,0,0,0,0,0,0,0,0,0,0,0,0,0,0,0,0,0,0,0,0,0,0,0,0,0,0,0,0,0,0,0,0,0,0,0,0,0,0,0,0,0,0,0,0,-0.1599,-0.1598,0,-0.1509,-0.1508,-0.1507,-0.1488,-0.1489,-0.149,-0.149,-0.1395,-0.1392,-0.1389,0,0,0,0,0,0,0,0,0,0,0,0,0,-0.1753,-0.1751,-0.1599,-0.1598,-0.1597,-0.1509,-0.1508,-0.1507,-0.1488,-0.1489,-0.149,-0.1491,-0.1396,-0.1393,-0.1389,0,0,0,0,0,0,0,0,0,0,0,0,0,-0.1677,-0.175,-0.1599,-0.1577,-0.1574,-0.1509,-0.1508,-0.1506,-0.1488,-0.1489,-0.149,-0.1491,-0.1398,-0.1393,-0.1388,-0.1338,0,0,-0.1374,-0.1372,0,0,0,0,0,0,0,0,-0.1681,-0.1671,-0.1581,-0.1578,-0.1575,-0.1511,-0.1527,-0.145,-0.1488,-0.1521,-0.149,-0.1492,-0.1433,-0.1425,-0.1406,-0.1334,-0.133,-0.1373,-0.1371,-0.1368,-0.1367,0,0,0,0,0,0,0,-0.1687,-0.1675,-0.1563,-0.158,-0.1576,-0.1571,-0.1561,-0.1513,-0.1472,-0.1518,-0.1516,-0.1506,-0.1431,-0.1411,-0.1404,-0.1328,-0.1374,-0.1369,-0.1366,-0.1364,-0.1211,-0.121,0,0,0,0,0,0,-0.1696,-0.168,-0.1566,-0.1561,-0.1632,-0.1568,-0.1557,-0.153,-0.1472,-0.1465,-0.1505,-0.1506,-0.1418,-0.1409,-0.14,-0.1338,-0.1368,-0.1364,-0.1361,-0.1212,-0.1211,-0.1209,0,0,0,0,0,0,-0.17,-0.1686,-0.157,-0.162,-0.1605,-0.1564,-0.1534,-0.1528,-0.1507,-0.1463,-0.1455,-0.1492,-0.1419,-0.1407,-0.1354,-0.1334,-0.1362,-0.1358,-0.1214,-0.1212,-0.121,-0.1212,0,0,0,0,0,0,-0.1704,-0.1688,-0.1668,-0.1619,-0.1602,-0.1525,-0.1533,-0.1526,-0.15,-0.1499,-0.1448,-0.1441,-0.1419,-0.1361,-0.1349,-0.1328,-0.1354,-0.1215,-0.1213,-0.1211,-0.1214,-0.1211,-0.1208,0,0,0,0,0,-0.171,-0.1672,-0.1667,-0.1654,-0.1577,-0.1524,-0.1514,-0.149,-0.1498,-0.1478,-0.145,-0.1442,-0.1339,-0.1356,-0.1342,-0.1319,-0.1216,-0.1213,-0.1211,-0.1215,-0.1211,-0.1208,0,0,0,0,0,0,-0.1718,-0.1665,-0.1659,-0.1605,-0.1569,-0.1521,-0.1495,-0.1487,-0.1448,-0.1449,-0.142,-0.1409,-0.1358,-0.1333,-0.1354,-0.1268,-0.1278,-0.1272,-0.1286,-0.1282,-0.1279,-0.1285,-0.135,0,0,0,0,0,-0.1714,-0.1676,-0.1631,-0.1587,-0.157,-0.1536,-0.1512,-0.1497,-0.1459,-0.1443,-0.1411,-0.1374,-0.1333,-0.1306,-0.1266,-0.1211,-0.1199,-0.1188,-0.1186,-0.1183,-0.1178,-0.1147,-0.1142,-0.12,-0.12,-0.12,0,0,-0.1704,-0.167,-0.1648,-0.1588,-0.1559,-0.152,-0.1523,-0.1482,-0.1452,-0.1437,-0.1385,-0.136,-0.1317,-0.1263,-0.1237,-0.1241,-0.116,-0.118,-0.1179,-0.1174,-0.1144,-0.1138,-0.1134,-0.1198,-0.1199,-0.1199,0,0,-0.1666,-0.1637,-0.1597,-0.1568,-0.1525,-0.1503,-0.1493,-0.1447,-0.143,-0.1378,-0.1366,-0.1331,-0.126,-0.123,-0.1205,-0.1158,-0.1149,-0.1146,-0.113,-0.1101,-0.1096,-0.1092,-0.1074,-0.1068,-0.1141,-0.1141,-0.1141,0,-0.1658,-0.16,-0.1577,-0.1537,-0.1511,-0.1497,-0.1456,-0.1429,-0.1374,-0.1356,-0.1362,-0.1274,-0.1244,-0.1182,-0.1171,-0.1152,-0.114,-0.115,-0.1099,-0.1094,-0.109,-0.1073,-0.1066,-0.1141,-0.1141,-0.1141,-0.1141,0,-0.1593,-0.1553,-0.1526,-0.1475,-0.1446,-0.1406,-0.1377,-0.135,-0.1338,-0.1316,-0.1263,-0.1227,-0.1179,-0.1164,-0.1151,-0.1101,-0.1104,-0.1105,-0.1113,-0.1084,-0.1068,-0.1061,-0.1141,-0.1141,-0.1141,-0.1141,0,0,-0.1555,-0.1494,-0.1484,-0.1461,-0.1413,-0.1381,-0.134,-0.1295,-0.1273,-0.1236,-0.12,-0.1143,-0.1143,-0.1115,-0.1099,-0.1073,-0.1038,-0.1077,-0.1075,-0.107,-0.0979,-0.0979,-0.0971,-0.1033,-0.1032,-0.103,-0.0983,0,-0.1511,-0.1438,-0.1417,-0.1356,-0.1318,-0.1305,-0.127,-0.1236,-0.1215,-0.1179,-0.1155,-0.1114,-0.1118,-0.1101,-0.1075,-0.1048,-0.1019,-0.1051,-0.0998,-0.0997,-0.1008,-0.0963,-0.0961,-0.0918,-0.0976,-0.0975,-0.0974,0,-0.1448,-0.1412,-0.1347,-0.1304,-0.1288,-0.1256,-0.1213,-0.118,-0.1142,-0.1128,-0.1098,-0.1085,-0.1042,-0.1055,-0.0994,-0.1016,-0.0994,-0.0977,-0.0975,-0.0968,-0.0983,-0.0953,-0.0904,-0.0897,-0.0964,-0.0965,-0.0966,0,-0.1426,-0.1361,-0.1314,-0.1294,-0.1244,-0.1222,-0.12,-0.1163,-0.1137,-0.11,-0.1083,-0.1041,-0.1017,-0.0985,-0.0961,-0.0972,-0.0902,-0.0913,-0.0888,-0.0889,-0.0872,-0.0873,-0.0818,-0.0861,-0.0861,-0.0861,-0.0861,0,-0.1378,-0.1338,-0.1303,-0.1274,-0.1229,-0.1207,-0.1163,-0.114,-0.1108,-0.1074,-0.106,-0.1028,-0.0999,-0.0963,-0.0944,-0.0896,-0.0886,-0.0873,-0.0868,-0.0873,-0.0875,-0.0857,-0.0859,-0.0859,-0.0859,-0.086,-0.086,0,-0.1345,-0.132,-0.1267,-0.1225,-0.1213,-0.1182,-0.1145,-0.1116,-0.1095,-0.1052,-0.1041,-0.1007,-0.0964,-0.0937,-0.0882,-0.087,-0.0817,-0.0814,-0.083,-0.0828,-0.0804,-0.0806,-0.0733,-0.0722,-0.0774,-0.0774,-0.0773,0,-0.1314,-0.1284,-0.1239,-0.1215,-0.1193,-0.1156,-0.113,-0.1107,-0.1081,-0.1036,-0.1012,-0.0969,-0.0933,-0.0865,-0.0835,-0.0793,-0.0788,-0.0765,-0.0781,-0.0788,-0.0786,-0.0788,-0.0784,-0.0762,-0.0762,-0.0761,-0.0761,0,-0.1263,-0.1253,-0.1217,-0.1177,-0.1147,-0.1114,-0.1081,-0.1063,-0.1034,-0.1005,-0.0962,-0.0934,-0.0879,-0.0836,-0.0792,-0.0768,-0.0759,-0.0757,-0.0749,-0.0753,-0.0763,-0.0756,-0.0822,-0.0758,-0.0758,-0.0758,-0.0759,-0.0759,-0.123,-0.1202,-0.1167,-0.1127,-0.11,-0.107,-0.1041,-0.1017,-0.0981,-0.0935,-0.0924,-0.0878,-0.0842,-0.0782,-0.0758,-0.0721,-0.0724,-0.0713,-0.0709,-0.0707,-0.0706,-0.0771,-0.0713,-0.0713,-0.0713,-0.0713,-0.0713,0,-0.1177,-0.1154,-0.1118,-0.1073,-0.1042,-0.1039,-0.1003,-0.0977,-0.0937,-0.0905,-0.087,-0.0821,-0.0779,-0.0747,-0.0704,-0.0681,-0.0676,-0.0671,-0.0671,-0.0666,-0.0706,-0.0717,-0.0675,-0.0675,-0.0675,-0.0675,-0.0675,-0.0676,-0.1146,-0.11,-0.1085,-0.1026,-0.1002,-0.0959,-0.0938,-0.091,-0.0884,-0.083,-0.0796,-0.0776,-0.0743,-0.0698,-0.066,-0.0651,-0.0636,-0.0631,-0.0621,-0.0659,-0.0663,-0.0667,-0.0677,-0.0628,-0.0628,-0.0584,-0.0584,-0.0583]},{"header":{"parameterUnit":"m.s-1","parameterCategory":1,"la1":30.2991,"la2":30.254,"lo1":-89.0895,"lo2":-89.0444,"dy":0.0017,"dx":0.0017,"nx":28,"ny":28,"refTime":"2024-05-18T21:00:00:Z","depth":0,"parameterNumber":3,"parameterNumberName":"V-component_of_WINDS"},"data":[0,0,0,0,0,0,0,0,0,0,0,0,0,0,0,0,0,0,0,0,0,0,0,0,0,0,0,0,0,0,0,0,0,0,0,0,0,0,0,0,0,0,0,0,0,0,0,0,0,0,0,0,0,0,0,0,0,0,1.6673,1.6672,0,1.6598,1.6597,1.6596,1.6515,1.6514,1.6513,1.6512,1.6433,1.6432,1.6431,0,0,0,0,0,0,0,0,0,0,0,0,0,1.6742,1.6741,1.6673,1.6672,1.6671,1.6598,1.6597,1.6596,1.6515,1.6514,1.6513,1.6511,1.6433,1.6432,1.6431,0,0,0,0,0,0,0,0,0,0,0,0,0,1.6694,1.6741,1.6673,1.6622,1.6616,1.6599,1.6597,1.6596,1.6516,1.6514,1.6512,1.6511,1.6434,1.6432,1.6431,1.6456,0,0,1.6426,1.6425,0,0,0,0,0,0,0,0,1.6697,1.6691,1.663,1.6625,1.6619,1.6564,1.6593,1.6549,1.6516,1.6554,1.6512,1.651,1.6478,1.6473,1.6462,1.6453,1.6449,1.6426,1.6425,1.6424,1.6424,0,0,0,0,0,0,0,1.67,1.6694,1.6643,1.6629,1.6623,1.6602,1.6593,1.6584,1.6526,1.655,1.6544,1.6537,1.6474,1.6464,1.646,1.6448,1.6426,1.6425,1.6424,1.6423,1.6455,1.6456,0,0,0,0,0,0,1.6712,1.6697,1.6645,1.6641,1.6655,1.6602,1.6592,1.6584,1.6526,1.6516,1.6538,1.6533,1.6468,1.6462,1.6457,1.6483,1.6424,1.6423,1.6422,1.6453,1.6455,1.6457,0,0,0,0,0,0,1.6713,1.6708,1.6648,1.6667,1.6658,1.6602,1.6594,1.6583,1.6573,1.6517,1.6506,1.6539,1.6466,1.6459,1.6457,1.6479,1.6422,1.6421,1.6451,1.6454,1.6456,1.6537,0,0,0,0,0,0,1.6716,1.6709,1.6719,1.6668,1.6658,1.6651,1.6595,1.6583,1.6571,1.6563,1.6515,1.6505,1.6464,1.646,1.6456,1.6476,1.642,1.6449,1.6452,1.6455,1.6532,1.6542,1.655,0,0,0,0,0,1.6718,1.6744,1.672,1.6714,1.6669,1.6653,1.6646,1.66,1.6573,1.6582,1.6546,1.6506,1.6477,1.646,1.6455,1.6475,1.6447,1.6451,1.6455,1.6528,1.654,1.655,0,0,0,0,0,0,1.6798,1.6736,1.6709,1.6719,1.6692,1.6639,1.6649,1.6614,1.6594,1.6587,1.6529,1.6519,1.6524,1.6499,1.6481,1.6497,1.6456,1.646,1.6513,1.6524,1.6534,1.654,1.6418,0,0,0,0,0,1.6817,1.6809,1.6755,1.6769,1.6757,1.6706,1.6697,1.6663,1.6632,1.662,1.6584,1.6555,1.6539,1.653,1.6512,1.6527,1.6515,1.6538,1.6548,1.6555,1.6559,1.6565,1.6575,1.647,1.647,1.647,0,0,1.6855,1.6821,1.6819,1.6785,1.676,1.6753,1.6697,1.6692,1.6686,1.6619,1.6616,1.6588,1.6552,1.6558,1.6559,1.6538,1.6585,1.656,1.6567,1.6566,1.657,1.658,1.6589,1.6473,1.6472,1.6472,0,0,1.6922,1.6895,1.6904,1.688,1.6843,1.6809,1.6811,1.6763,1.6743,1.6739,1.6689,1.668,1.6654,1.663,1.6614,1.6671,1.6634,1.6667,1.6716,1.6722,1.673,1.6737,1.6758,1.6766,1.6671,1.6671,1.6671,0,1.6975,1.6963,1.6913,1.6911,1.6897,1.6837,1.6845,1.6824,1.6783,1.6774,1.675,1.6717,1.6688,1.6688,1.6702,1.6691,1.6691,1.6673,1.6733,1.674,1.6746,1.6765,1.6773,1.6675,1.6675,1.6674,1.6674,0,1.703,1.7022,1.7034,1.6997,1.6984,1.6987,1.6936,1.6929,1.6896,1.6864,1.686,1.6823,1.6797,1.6794,1.6761,1.6789,1.6777,1.6744,1.6703,1.6761,1.6778,1.6785,1.6681,1.668,1.6678,1.6677,0,0,1.7146,1.7081,1.7086,1.7068,1.7023,1.7016,1.7015,1.6991,1.6986,1.6959,1.6957,1.6936,1.6905,1.6888,1.6852,1.6857,1.6905,1.6823,1.6821,1.6841,1.6934,1.6961,1.697,1.688,1.6881,1.6882,1.6938,0,1.7206,1.7204,1.7158,1.7168,1.7161,1.7103,1.7102,1.7074,1.7044,1.7032,1.6997,1.6984,1.6944,1.6933,1.6935,1.6899,1.6924,1.6894,1.6878,1.6878,1.689,1.6979,1.7007,1.7061,1.6944,1.6945,1.6946,0,1.7275,1.7254,1.7264,1.7218,1.7213,1.7214,1.7188,1.7177,1.7143,1.712,1.7101,1.706,1.7056,1.7016,1.7009,1.699,1.698,1.6961,1.6962,1.6959,1.6917,1.698,1.7077,1.7086,1.6956,1.6955,1.6954,0,1.7361,1.7334,1.7336,1.7323,1.7269,1.7271,1.7248,1.7213,1.7201,1.7177,1.7168,1.7144,1.7131,1.7113,1.7066,1.7041,1.7065,1.7021,1.7045,1.7047,1.7054,1.7055,1.7153,1.7046,1.7046,1.7046,1.7045,0,1.7433,1.7442,1.7374,1.7376,1.7383,1.733,1.7338,1.731,1.7278,1.7273,1.722,1.7216,1.7154,1.7143,1.7106,1.7106,1.71,1.7081,1.7071,1.7087,1.7089,1.708,1.7076,1.7048,1.7047,1.7047,1.7047,0,1.753,1.7485,1.7484,1.7433,1.742,1.7428,1.7384,1.7383,1.7349,1.7343,1.7338,1.7284,1.7268,1.7219,1.719,1.7165,1.7176,1.7157,1.7188,1.7182,1.721,1.7209,1.7307,1.7318,1.7204,1.7205,1.7206,0,1.758,1.7585,1.7535,1.7528,1.7508,1.7497,1.7485,1.7432,1.7421,1.7382,1.7386,1.7366,1.7347,1.7323,1.728,1.7258,1.7238,1.7274,1.7235,1.725,1.724,1.7241,1.7241,1.7284,1.7285,1.7286,1.7287,0,1.7674,1.7651,1.7636,1.7613,1.76,1.7579,1.7555,1.7552,1.7492,1.7482,1.7466,1.7451,1.7421,1.7402,1.7372,1.7347,1.7308,1.73,1.7305,1.7321,1.7339,1.7331,1.7213,1.7298,1.7297,1.7296,1.7296,1.7295,1.7749,1.7751,1.7717,1.7701,1.7678,1.7656,1.7653,1.7619,1.7604,1.7577,1.7545,1.7532,1.7497,1.7453,1.7432,1.742,1.7398,1.7405,1.7407,1.741,1.7417,1.734,1.7414,1.7413,1.7413,1.7413,1.7412,0,1.7841,1.7816,1.7802,1.7771,1.7758,1.7722,1.7693,1.7685,1.7675,1.7646,1.7628,1.7609,1.7589,1.7545,1.7521,1.752,1.7501,1.7516,1.7516,1.7511,1.7437,1.7436,1.7531,1.7531,1.7531,1.7531,1.7531,1.7531,1.7888,1.789,1.7863,1.7852,1.7826,1.7814,1.7801,1.778,1.7757,1.7738,1.7722,1.7693,1.7658,1.7631,1.7611,1.7598,1.7592,1.7613,1.7595,1.7527,1.7516,1.7505,1.7504,1.7612,1.7612,1.767,1.767,1.7671]}]]